Torna al catalogo

ONEWEB-0168

AttivoComunicazioniPO
NORAD 48068·PAYLOAD·🇬🇧 United Kingdom

Lanciato Mar 25, 2021 da Vostochny Cosmodrome

Loading…

Prossimi Passaggi (prossime 24 ore)

TLE

AggiornatoSource: CelesTrak SupGP

Epoca: Sep 14, 2026, 14:17 UTC

1 48068C 21025AC  26257.59564074  .00002665  00000+0  73052-2 0  2572
2 48068  87.8926 302.4383 0001886  94.7424   5.9596 13.13469991    15

Traccia ONEWEB-0168 in tempo reale con AllMySat

Download on the App Store